World > North America > United States > Illinois   City of Chicago, Illinois

Chicago, Illinois Regional Weather

Lat: 41.88N, Lon: 87.63W
Wx Zone: ILZ014
Feedback

Chicago, IL Regional Weather

Expires:202002291300;;272545
ASUS43 KLOT 291208
RWRIL 

ILLINOIS REGIONAL WEATHER ROUNDUP
NATIONAL WEATHER SERVICE CHICAGO/ROMEOVILLE IL
600 AM CST SAT FEB 29 2020

NOTE: "FAIR" INDICATES FEW OR NO CLOUDS BELOW 12,000 FEET WITH NO
SIGNIFICANT WEATHER AND/OR OBSTRUCTIONS TO VISIBILITY.

* THESE STATIONS ARE NOT UNDER NWS QUALITY CONTROL. THEY ALSO MAY NOT
  REPORT WEATHER SUCH AS PRECIPITATION OR FOG.


ILZ005-006-012>014-019>023-291300-
NORTHEAST ILLINOIS
  
CITY           SKY/WX    TMP DP  RH WIND       PRES   REMARKS
CHICAGO-OHARE  FAIR      17   3  54 W8        30.17S WCI   7          
6HR MIN TEMP:  17; 6HR MAX TEMP:  22;                                

CHICAGO-MIDWAY FAIR      17   3  54 W8        30.19R WCI   7          
6HR MIN TEMP:  17; 6HR MAX TEMP:  22;                                

SCHAUMBURG     NOT AVBL                                               
AURORA         FAIR      11   4  73 W8        30.19S WCI  -1          
6HR MIN TEMP:   9; 6HR MAX TEMP:  16;                                

LANSING*       FAIR      15   4  62 CALM      30.19S                  
JOLIET*        FAIR      16   8  69 CALM        N/A                   
WAUKEGAN       FAIR      15   1  53 W5        30.16R WCI   8          
6HR MIN TEMP:  15; 6HR MAX TEMP:  20;                                

DUPAGE AIRPORT FAIR      14   3  61 NW6       30.17S WCI   5          
6HR MIN TEMP:  14; 6HR MAX TEMP:  19;                                

KANKAKEE*      FAIR      15   9  78 W7        30.22R WCI   5          
WHEELING       FAIR      17   1  49 NW5       30.19S WCI  10          
6HR MIN TEMP:  17; 6HR MAX TEMP:  22;                                

MORRIS*        FAIR      13   8  80 W8        30.21R WCI   2          
ROMEOVILLE*    FAIR      13   8  79 W7        30.20S WCI   3          
NORTHERLY ISL    N/A     20   3  48 W8          N/A  WCI  10          
$$


SKY/WX - Weather  TMP - Temperature  DP - Dew Point  RH - Relative Humidity
WIND - Wind Direction/Speed PRES - Barometric Pressure VSB - Visibility
WCI - Wind Chill Index E13G22 Wind - East Wind 13 mph/Gusts of 22 mph
Chicago Weather Map
What is UTC time?